Location: ??????????
(44.2167°N, 135.5333°E)
Time: 14:19:17
(UTC+00:00)

Okean 3 - Pass Details

Date: 15 June 2025
Orbit: 547 x 569 km, 82.5° (Epoch: 15 July)

Event Time Altitude Azimuth Distance (km) Brightness Sun altitude
Exits shadow 13:49:53 37° 228° (SW) 880 4.1 -20.6°
Maximum altitude 13:51:07 53° 281° (W) 698 3.9 -20.7°
Drops below altitude 10° 13:55:09 10° 359° (N) 1,861 7.1 -20.9°
Sets 13:57:22 0° 4° (N) 2,758 8.2 -21.0°
